[[{"header":{"parameterUnit":"m.s-1","parameterCategory":2,"la1":30.2991,"la2":30.254,"lo1":-89.0895,"lo2":-89.0444,"dy":0.0017,"dx":0.0017,"nx":28,"ny":28,"refTime":"2024-02-26T03:00:00:Z","depth":"0","parameterNumber":2,"parameterNumberName":"U-component_of_CURRENTS"},"data":[0,0,0,0,0,0,0,0,0,0,0,0,0,0,0,0,0,0,0,0,0,0,0,0,0,0,0,0,0,0,0,0,0,0,0,0,0,0,0,0,0,0,0,0,0,0,0,0,0,0,0,0,0,0,0,0,0,0,0.1742,0.1741,0,0.1692,0.1691,0.169,0.1657,0.1657,0.1657,0.1657,0.16,0.1599,0.1597,0,0,0,0,0,0,0,0,0,0,0,0,0,0.177,0.177,0.1742,0.1741,0.1741,0.1692,0.1691,0.169,0.1657,0.1657,0.1657,0.1657,0.1601,0.1599,0.1597,0,0,0,0,0,0,0,0,0,0,0,0,0,0.1739,0.177,0.1742,0.1722,0.172,0.1693,0.1691,0.169,0.1657,0.1657,0.1657,0.1658,0.1602,0.1599,0.1597,0.1578,0,0,0.1589,0.1588,0,0,0,0,0,0,0,0,0.1741,0.1738,0.1725,0.1723,0.1721,0.1684,0.1681,0.1654,0.1657,0.1677,0.1657,0.1658,0.163,0.1625,0.161,0.1575,0.1573,0.1589,0.1588,0.1587,0.1586,0,0,0,0,0,0,0,0.1744,0.174,0.1718,0.1725,0.1722,0.1703,0.1698,0.1675,0.165,0.1675,0.1673,0.1674,0.1629,0.1613,0.1609,0.1572,0.1589,0.1587,0.1586,0.1585,0.146,0.1458,0,0,0,0,0,0,0.1759,0.1742,0.172,0.1717,0.1736,0.1702,0.1697,0.1693,0.165,0.1645,0.1674,0.1673,0.1617,0.1612,0.1607,0.159,0.1587,0.1584,0.1583,0.1462,0.146,0.1458,0,0,0,0,0,0,0.176,0.1757,0.1722,0.1732,0.1726,0.1702,0.1697,0.1692,0.1675,0.165,0.1644,0.1664,0.1617,0.161,0.1551,0.1587,0.1583,0.1581,0.1464,0.1461,0.1459,0.1551,0,0,0,0,0,0,0.1761,0.1758,0.1756,0.1733,0.1727,0.1716,0.1697,0.1691,0.1678,0.1675,0.164,0.1634,0.1616,0.1554,0.1548,0.1584,0.1579,0.1467,0.1463,0.146,0.1551,0.1552,0.1553,0,0,0,0,0,0.1762,0.176,0.1756,0.1753,0.1726,0.1717,0.1712,0.1693,0.1677,0.1676,0.1618,0.1636,0.1529,0.155,0.1544,0.158,0.1468,0.1464,0.146,0.155,0.1552,0.1553,0,0,0,0,0,0,0.1777,0.1756,0.1751,0.1744,0.1738,0.1713,0.1711,0.1693,0.1647,0.164,0.1603,0.1593,0.1553,0.1532,0.1556,0.1523,0.1506,0.15,0.1576,0.1577,0.1579,0.1685,0.1577,0,0,0,0,0,0.178,0.1769,0.1757,0.1754,0.1754,0.1731,0.1723,0.1712,0.1674,0.1655,0.1625,0.1578,0.1531,0.1526,0.1477,0.1466,0.1513,0.148,0.1482,0.1484,0.1559,0.1617,0.1634,0.1444,0.1444,0.1444,0,0,0.1784,0.1775,0.1767,0.1757,0.1749,0.1749,0.1726,0.1722,0.1724,0.1656,0.1635,0.1574,0.1516,0.1491,0.1477,0.1487,0.1553,0.1479,0.1482,0.1557,0.1615,0.1635,0.1653,0.1441,0.1442,0.1442,0,0,0.179,0.1785,0.1776,0.1776,0.1772,0.1764,0.1765,0.1742,0.1737,0.1707,0.1643,0.1616,0.1547,0.1534,0.1512,0.1494,0.154,0.1453,0.1583,0.1637,0.1656,0.1674,0.1746,0.1769,0.1479,0.148,0.148,0,0.1794,0.1785,0.1776,0.1777,0.1778,0.1773,0.1773,0.1774,0.1733,0.1739,0.1714,0.1636,0.1591,0.1585,0.1581,0.1515,0.1549,0.159,0.165,0.1669,0.1686,0.1755,0.178,0.1483,0.1483,0.1483,0.1482,0,0.1791,0.1792,0.1795,0.1792,0.1794,0.1799,0.1805,0.181,0.1804,0.1811,0.1804,0.1746,0.172,0.1687,0.1641,0.1714,0.1699,0.1633,0.1674,0.1713,0.178,0.1805,0.1489,0.1488,0.1487,0.1486,0,0,0.1776,0.1786,0.1787,0.1793,0.1802,0.1803,0.1829,0.1853,0.1882,0.1886,0.193,0.1885,0.1888,0.1864,0.1802,0.1876,0.2008,0.183,0.1831,0.1955,0.2154,0.2083,0.2103,0.1952,0.1956,0.196,0.2152,0,0.1774,0.1779,0.1782,0.1797,0.1803,0.182,0.1842,0.1872,0.1902,0.1948,0.1974,0.1973,0.1942,0.1927,0.2005,0.1975,0.2079,0.1965,0.2056,0.2061,0.2036,0.2131,0.1977,0.213,0.2177,0.2181,0.2184,0,0.1763,0.1771,0.1778,0.1802,0.1806,0.1817,0.1866,0.1887,0.1971,0.2001,0.207,0.2075,0.2169,0.2125,0.2254,0.2177,0.2215,0.2227,0.2232,0.2173,0.2037,0.2094,0.2173,0.2134,0.2222,0.2219,0.2216,0,0.1747,0.1766,0.1771,0.1779,0.1808,0.1822,0.184,0.1905,0.1932,0.2049,0.2088,0.2199,0.2233,0.233,0.2373,0.2322,0.2526,0.2431,0.2428,0.2422,0.2322,0.2299,0.2429,0.2591,0.259,0.259,0.2589,0,0.1736,0.1738,0.1769,0.1773,0.179,0.1815,0.1849,0.1893,0.1967,0.2016,0.2115,0.2173,0.2291,0.2394,0.2448,0.2533,0.259,0.2523,0.249,0.2339,0.2316,0.2297,0.225,0.2597,0.2595,0.2594,0.2593,0,0.1702,0.1724,0.1732,0.1768,0.1779,0.179,0.1825,0.1858,0.1933,0.2004,0.2044,0.2185,0.2317,0.2434,0.2581,0.2597,0.2613,0.2703,0.2534,0.2478,0.2397,0.2357,0.24,0.2338,0.2749,0.2749,0.2749,0,0.1676,0.1679,0.1716,0.173,0.1742,0.1764,0.178,0.1837,0.187,0.1995,0.2028,0.2187,0.2275,0.2487,0.2552,0.268,0.2614,0.262,0.25,0.2448,0.238,0.2271,0.2208,0.2402,0.2399,0.2396,0.2394,0,0.162,0.1637,0.1649,0.1686,0.1705,0.172,0.1746,0.1763,0.1838,0.1897,0.1992,0.2077,0.2253,0.2316,0.2475,0.252,0.2464,0.257,0.2561,0.2197,0.2046,0.1947,0.2236,0.2372,0.2374,0.2376,0.2377,0.2378,0.1564,0.1568,0.1597,0.1627,0.1647,0.1663,0.1655,0.1697,0.1729,0.1793,0.1908,0.1975,0.2118,0.2293,0.233,0.2308,0.2306,0.2261,0.2248,0.217,0.202,0.2282,0.2328,0.233,0.2331,0.2333,0.2334,0,0.1492,0.1511,0.1537,0.156,0.1554,0.1596,0.1617,0.1605,0.1615,0.1687,0.175,0.1851,0.1913,0.2012,0.2052,0.2011,0.1912,0.199,0.1817,0.1794,0.2081,0.1972,0.1886,0.1886,0.1886,0.1886,0.1886,0.1886,0.1449,0.1448,0.1475,0.1454,0.147,0.1441,0.1439,0.1449,0.1471,0.1497,0.1516,0.1596,0.176,0.1877,0.1855,0.1812,0.1697,0.1593,0.166,0.1863,0.1887,0.191,0.1802,0.1682,0.1681,0.1268,0.1265,0.1262]},{"header":{"parameterUnit":"m.s-1","parameterCategory":2,"la1":30.2991,"la2":30.254,"lo1":-89.0895,"lo2":-89.0444,"dy":0.0017,"dx":0.0017,"nx":28,"ny":28,"refTime":"2024-02-26T03:00:00:Z","depth":"0","parameterNumber":3,"parameterNumberName":"V-component_of_CURRENTS"},"data":[0,0,0,0,0,0,0,0,0,0,0,0,0,0,0,0,0,0,0,0,0,0,0,0,0,0,0,0,0,0,0,0,0,0,0,0,0,0,0,0,0,0,0,0,0,0,0,0,0,0,0,0,0,0,0,0,0,0,0.0748,0.0747,0,0.0628,0.0627,0.0626,0.0587,0.0587,0.0587,0.0587,0.0471,0.0468,0.0465,0,0,0,0,0,0,0,0,0,0,0,0,0,0.083,0.083,0.0749,0.0747,0.0745,0.0628,0.0627,0.0625,0.0587,0.0587,0.0587,0.0587,0.0472,0.0468,0.0465,0,0,0,0,0,0,0,0,0,0,0,0,0,0.0766,0.083,0.0749,0.0707,0.0702,0.0628,0.0627,0.0625,0.0587,0.0587,0.0587,0.0587,0.0473,0.0469,0.0464,0.0434,0,0,0.045,0.0448,0,0,0,0,0,0,0,0,0.077,0.0764,0.0715,0.071,0.0704,0.0617,0.0612,0.056,0.0587,0.0637,0.0587,0.0587,0.0517,0.0509,0.0494,0.0429,0.0424,0.0449,0.0447,0.0445,0.0443,0,0,0,0,0,0,0,0.0774,0.0768,0.0706,0.0713,0.0706,0.0654,0.0647,0.0602,0.0582,0.0632,0.0628,0.0605,0.0514,0.0498,0.0491,0.0422,0.045,0.0445,0.0443,0.0441,0.0322,0.0322,0,0,0,0,0,0,0.0784,0.0773,0.071,0.0702,0.0731,0.0653,0.0644,0.065,0.0583,0.0571,0.0605,0.0604,0.0506,0.0496,0.0486,0.0467,0.0445,0.044,0.0438,0.0322,0.0322,0.0322,0,0,0,0,0,0,0.0787,0.0781,0.0715,0.0728,0.0716,0.0651,0.0657,0.0647,0.0627,0.0561,0.055,0.0594,0.0506,0.0493,0.0445,0.0462,0.0438,0.0434,0.0323,0.0322,0.0322,0.0416,0,0,0,0,0,0,0.079,0.0783,0.0784,0.073,0.0715,0.0679,0.0656,0.0645,0.061,0.0607,0.0547,0.0537,0.0505,0.0453,0.0441,0.0455,0.043,0.0323,0.0322,0.0322,0.0414,0.0419,0.0424,0,0,0,0,0,0.0794,0.0799,0.0786,0.0776,0.0722,0.0679,0.0667,0.0624,0.061,0.0606,0.0561,0.0539,0.044,0.0448,0.0435,0.0448,0.0323,0.0323,0.0322,0.0411,0.0418,0.0424,0,0,0,0,0,0,0.0834,0.0793,0.0778,0.077,0.0729,0.067,0.0659,0.0624,0.0585,0.0586,0.0529,0.0515,0.0482,0.0442,0.0453,0.0409,0.038,0.0376,0.0453,0.0458,0.0463,0.054,0.0426,0,0,0,0,0,0.0843,0.084,0.0788,0.0782,0.077,0.0715,0.0688,0.066,0.0616,0.0599,0.0554,0.0506,0.0467,0.0446,0.0403,0.0375,0.0369,0.0373,0.0378,0.0383,0.0433,0.0425,0.0436,0.0319,0.0319,0.0319,0,0,0.0852,0.0831,0.0826,0.079,0.0763,0.0747,0.0702,0.0674,0.0664,0.0592,0.057,0.0519,0.046,0.0436,0.0417,0.0406,0.0406,0.0382,0.0387,0.0436,0.0425,0.0437,0.0448,0.0318,0.0318,0.0319,0,0,0.0874,0.0863,0.0867,0.0842,0.0799,0.0768,0.0762,0.0707,0.0693,0.0654,0.0606,0.0581,0.0497,0.0484,0.046,0.0466,0.0431,0.0426,0.052,0.051,0.0521,0.0531,0.0522,0.0531,0.0433,0.0433,0.0433,0,0.0886,0.0889,0.0858,0.0856,0.0836,0.0785,0.0781,0.076,0.0693,0.0698,0.0661,0.0591,0.0539,0.0538,0.0542,0.0487,0.0465,0.0505,0.0523,0.0532,0.0541,0.0529,0.0537,0.0437,0.0437,0.0436,0.0436,0,0.0898,0.0908,0.0913,0.0901,0.0877,0.0869,0.0832,0.0822,0.0792,0.0773,0.0763,0.0701,0.0672,0.0637,0.0594,0.0622,0.058,0.0529,0.0521,0.0559,0.0543,0.055,0.0444,0.0442,0.0441,0.044,0,0,0.0914,0.0922,0.0922,0.0934,0.0902,0.0885,0.0893,0.0887,0.0909,0.0868,0.0898,0.0846,0.0832,0.0806,0.0744,0.0744,0.0771,0.0672,0.0669,0.069,0.0747,0.071,0.0713,0.0711,0.0713,0.0714,0.0706,0,0.0935,0.0954,0.0942,0.096,0.0971,0.0946,0.0955,0.0948,0.0944,0.0963,0.0948,0.094,0.0887,0.0869,0.0872,0.0788,0.0796,0.0779,0.0686,0.0684,0.0669,0.0723,0.0648,0.0635,0.0713,0.0714,0.0715,0,0.0944,0.096,0.0984,0.1011,0.1012,0.1014,0.1034,0.1033,0.1066,0.1068,0.1095,0.1069,0.1084,0.1014,0.0972,0.0954,0.0884,0.0824,0.082,0.0775,0.0662,0.0609,0.0644,0.0534,0.0725,0.0724,0.0723,0,0.0958,0.0989,0.1014,0.1016,0.1032,0.1051,0.1054,0.1076,0.1096,0.1145,0.1167,0.1182,0.1171,0.112,0.1021,0.0987,0.0963,0.0887,0.08,0.0795,0.0716,0.0701,0.0665,0.0882,0.0882,0.0882,0.0882,0,0.0978,0.0997,0.1033,0.1042,0.1085,0.1079,0.1126,0.114,0.1178,0.1223,0.1226,0.1259,0.1194,0.1166,0.1074,0.0978,0.1005,0.086,0.0808,0.074,0.0729,0.0614,0.0558,0.0882,0.0882,0.0882,0.0882,0,0.0976,0.1001,0.1036,0.1074,0.1096,0.1116,0.1158,0.1194,0.1221,0.1281,0.1299,0.1318,0.1289,0.122,0.1128,0.1031,0.0868,0.0894,0.0829,0.0771,0.0583,0.0534,0.0491,0.0444,0.081,0.0809,0.0808,0,0.0969,0.0992,0.1051,0.1089,0.1111,0.1153,0.1187,0.1215,0.1253,0.1315,0.1347,0.1355,0.1365,0.124,0.1093,0.0962,0.085,0.0778,0.0717,0.0609,0.0515,0.0488,0.045,0.0631,0.0629,0.0627,0.0626,0,0.0957,0.0981,0.1012,0.1101,0.1153,0.1203,0.1256,0.129,0.133,0.1388,0.1447,0.1462,0.1351,0.12,0.1022,0.0905,0.0684,0.074,0.0638,0.0413,0.0372,0.0287,0.0601,0.0612,0.0613,0.0614,0.0615,0.0616,0.094,0.0969,0.1035,0.111,0.1179,0.1254,0.129,0.1348,0.1419,0.1498,0.1527,0.1539,0.1303,0.1064,0.0891,0.0547,0.0598,0.0404,0.0365,0.0358,0.0292,0.0594,0.0536,0.0537,0.0538,0.0539,0.0539,0,0.0933,0.0977,0.1047,0.1142,0.1209,0.1249,0.1337,0.1379,0.1459,0.1527,0.1594,0.1477,0.1181,0.0875,0.0433,0.0191,0.013,0.0077,0.0006,-0.0006,0.0257,0.0225,0.0084,0.0084,0.0084,0.0084,0.0085,0.0085,0.0942,0.0989,0.1033,0.1147,0.1211,0.1295,0.134,0.1416,0.1475,0.1548,0.1525,0.1533,0.129,0.0514,-0.003,-0.0137,-0.0262,-0.0301,-0.0307,-0.0166,-0.0139,-0.0113,-0.0156,-0.0374,-0.0374,-0.0582,-0.0584,-0.0586]}],[{"header":{"parameterUnit":"m.s-1","parameterCategory":2,"la1":30.2991,"la2":30.254,"lo1":-89.0895,"lo2":-89.0444,"dy":0.0017,"dx":0.0017,"nx":28,"ny":28,"refTime":"2024-02-26T03:00:00:Z","depth":"2","parameterNumber":2,"parameterNumberName":"U-component_of_CURRENTS"},"data":[0,0,0,0,0,0,0,0,0,0,0,0,0,0,0,0,0,0,0,0,0,0,0,0,0,0,0,0,0,0,0,0,0,0,0,0,0,0,0,0,0,0,0,0,0,0,0,0,0,0,0,0,0,0,0,0,0,0,0.1676,0.1675,0,0.1607,0.1606,0.1606,0.1602,0.1603,0.1604,0.1604,0.1587,0.1586,0.1585,0,0,0,0,0,0,0,0,0,0,0,0,0,0.1691,0.1691,0.1676,0.1675,0.1674,0.1607,0.1606,0.1606,0.1602,0.1603,0.1604,0.1604,0.1587,0.1586,0.1585,0,0,0,0,0,0,0,0,0,0,0,0,0,0.1661,0.1692,0.1676,0.1663,0.1661,0.1607,0.1606,0.1605,0.1602,0.1603,0.1604,0.1605,0.1588,0.1586,0.1585,0.1556,0,0,0.158,0.1579,0,0,0,0,0,0,0,0,0.1663,0.1661,0.1666,0.1664,0.1661,0.1613,0.1605,0.1591,0.1602,0.1626,0.1604,0.1605,0.1599,0.1596,0.1583,0.1555,0.1554,0.158,0.1579,0.1578,0.1578,0,0,0,0,0,0,0,0.1665,0.1663,0.1651,0.1665,0.1662,0.1621,0.1619,0.1602,0.161,0.1624,0.1623,0.1613,0.1598,0.1584,0.1583,0.1554,0.158,0.1578,0.1577,0.1577,0.1474,0.1472,0,0,0,0,0,0,0.1675,0.1666,0.1653,0.1648,0.1663,0.162,0.1618,0.1629,0.1609,0.1606,0.1612,0.1613,0.1587,0.1584,0.1582,0.1577,0.1578,0.1577,0.1576,0.1476,0.1473,0.1472,0,0,0,0,0,0,0.1676,0.1676,0.1655,0.1653,0.1647,0.162,0.1631,0.1627,0.161,0.1599,0.1598,0.1599,0.1587,0.1584,0.1544,0.1576,0.1576,0.1575,0.1478,0.1475,0.1472,0.1548,0,0,0,0,0,0,0.1677,0.1677,0.1686,0.1654,0.1648,0.1626,0.163,0.1625,0.1601,0.1601,0.1587,0.1586,0.1588,0.1546,0.1542,0.1573,0.1573,0.148,0.1476,0.1473,0.1548,0.1548,0.1549,0,0,0,0,0,0.1679,0.1673,0.1687,0.1685,0.1663,0.1626,0.1618,0.1602,0.1599,0.1591,0.1564,0.1587,0.1523,0.1542,0.1539,0.1571,0.1482,0.1477,0.1474,0.1548,0.1548,0.1549,0,0,0,0,0,0,0.1693,0.1671,0.1686,0.1681,0.1662,0.1625,0.1623,0.1595,0.1566,0.157,0.1557,0.1553,0.1528,0.1515,0.1537,0.1521,0.1509,0.1504,0.1566,0.1566,0.1567,0.1665,0.1572,0,0,0,0,0,0.1701,0.1676,0.1673,0.166,0.1678,0.1651,0.1633,0.1612,0.158,0.1569,0.1565,0.1541,0.1507,0.1509,0.1479,0.1472,0.1493,0.1485,0.1485,0.1486,0.1556,0.1587,0.16,0.1458,0.1458,0.1458,0,0,0.1698,0.168,0.1669,0.1658,0.1664,0.1663,0.1645,0.1621,0.1612,0.1572,0.1577,0.1537,0.1494,0.1484,0.1476,0.1486,0.1521,0.1481,0.1484,0.1555,0.1585,0.16,0.1613,0.1456,0.1456,0.1456,0,0,0.1667,0.1691,0.1674,0.1668,0.1658,0.1652,0.1646,0.1629,0.1637,0.1611,0.1575,0.1565,0.152,0.1521,0.1505,0.1486,0.1506,0.145,0.1565,0.1592,0.1607,0.162,0.1616,0.1629,0.1472,0.1473,0.1473,0,0.1658,0.1666,0.166,0.1654,0.1654,0.1655,0.1654,0.1656,0.1613,0.1639,0.1627,0.159,0.156,0.1559,0.1562,0.1504,0.1502,0.1575,0.1602,0.1616,0.1629,0.1622,0.1635,0.1476,0.1475,0.1475,0.1475,0,0.1636,0.1647,0.1649,0.1653,0.164,0.1642,0.1656,0.1671,0.1686,0.1696,0.1715,0.168,0.1676,0.1647,0.1612,0.1667,0.1626,0.1587,0.1625,0.165,0.1637,0.165,0.148,0.1479,0.1478,0.1477,0,0,0.1603,0.163,0.1629,0.1641,0.165,0.1626,0.1664,0.1706,0.1744,0.1764,0.1814,0.1801,0.182,0.1802,0.1752,0.1804,0.1868,0.1757,0.1757,0.1798,0.191,0.1717,0.1712,0.1833,0.1837,0.1839,0.185,0,0.1604,0.1593,0.1603,0.1601,0.1623,0.1649,0.1674,0.1695,0.1752,0.1807,0.185,0.1867,0.1862,0.1856,0.1913,0.186,0.1913,0.1869,0.1845,0.1845,0.1709,0.1725,0.164,0.1628,0.1862,0.1864,0.1866,0,0.159,0.159,0.1593,0.1604,0.1622,0.1625,0.1688,0.1695,0.1796,0.1843,0.1929,0.195,0.2026,0.2002,0.2057,0.2023,0.2007,0.199,0.1987,0.1816,0.1679,0.1645,0.1643,0.1887,0.1885,0.1884,0.1882,0,0.1555,0.1574,0.1576,0.158,0.1602,0.1634,0.1657,0.1734,0.176,0.1886,0.1934,0.2028,0.2045,0.2098,0.2072,0.2079,0.21,0.2084,0.1908,0.1892,0.1826,0.1796,0.2164,0.2164,0.2164,0.2164,0.2164,0,0.1536,0.1534,0.1578,0.1578,0.1581,0.1612,0.1654,0.1697,0.1788,0.1823,0.1954,0.1999,0.2079,0.2089,0.2096,0.2015,0.2116,0.1962,0.1899,0.1832,0.1805,0.2043,0.2029,0.2164,0.2164,0.2164,0.2164,0,0.1465,0.1503,0.1501,0.1553,0.1559,0.1555,0.161,0.1667,0.1757,0.1807,0.1851,0.1975,0.1993,0.2011,0.2037,0.1991,0.196,0.19,0.179,0.1714,0.1744,0.1733,0.1769,0.1763,0.1757,0.1753,0.1749,0,0.1426,0.1428,0.1444,0.145,0.1483,0.1507,0.154,0.1625,0.1684,0.1781,0.1805,0.1859,0.1855,0.1801,0.1762,0.1709,0.1789,0.1572,0.1589,0.1778,0.1714,0.1711,0.1707,0.1523,0.1517,0.1513,0.151,0,0.136,0.1372,0.1371,0.1376,0.1414,0.1407,0.1477,0.1498,0.1596,0.1649,0.1678,0.1681,0.1647,0.1556,0.1458,0.1427,0.1579,0.1474,0.1735,0.1595,0.1535,0.1474,0.1482,0.1471,0.1475,0.1478,0.148,0.1481,0.1308,0.1283,0.1295,0.1276,0.1337,0.1328,0.1316,0.1393,0.1404,0.1428,0.1472,0.1443,0.1425,0.1244,0.1186,0.1173,0.1273,0.1259,0.1279,0.1302,0.1231,0.116,0.1014,0.1015,0.1016,0.1017,0.1017,0,0.1218,0.1205,0.1199,0.1183,0.1219,0.1269,0.1289,0.1249,0.1248,0.1262,0.123,0.1079,0.101,0.1035,0.097,0.0919,0.0987,0.0883,0.1016,0.1051,0.1084,0.101,0.0729,0.0729,0.0728,0.0727,0,0,0.1163,0.1102,0.1071,0.1048,0.1106,0.1134,0.1141,0.1056,0.1045,0.0938,0.0942,0.0922,0.0993,0.0854,0.0812,0.0789,0.0921,0.0749,0.0979,0.1172,0.1204,0.1289,0.1209,0,0,0,0,0]},{"header":{"parameterUnit":"m.s-1","parameterCategory":2,"la1":30.2991,"la2":30.254,"lo1":-89.0895,"lo2":-89.0444,"dy":0.0017,"dx":0.0017,"nx":28,"ny":28,"refTime":"2024-02-26T03:00:00:Z","depth":"2","parameterNumber":3,"parameterNumberName":"V-component_of_CURRENTS"},"data":[0,0,0,0,0,0,0,0,0,0,0,0,0,0,0,0,0,0,0,0,0,0,0,0,0,0,0,0,0,0,0,0,0,0,0,0,0,0,0,0,0,0,0,0,0,0,0,0,0,0,0,0,0,0,0,0,0,0,0.0348,0.0347,0,0.028,0.028,0.028,0.0333,0.0334,0.0335,0.0337,0.027,0.0267,0.0264,0,0,0,0,0,0,0,0,0,0,0,0,0,0.0362,0.0364,0.0349,0.0347,0.0345,0.028,0.028,0.028,0.0333,0.0334,0.0336,0.0337,0.027,0.0267,0.0264,0,0,0,0,0,0,0,0,0,0,0,0,0,0.0343,0.0364,0.0349,0.0354,0.0353,0.0279,0.028,0.028,0.0333,0.0334,0.0336,0.0338,0.0272,0.0267,0.0263,0.02,0,0,0.025,0.0248,0,0,0,0,0,0,0,0,0.0344,0.0344,0.0356,0.0354,0.0352,0.0306,0.0259,0.0249,0.0332,0.0353,0.0337,0.0339,0.0273,0.0268,0.0269,0.0197,0.0194,0.0249,0.0247,0.0245,0.0244,0,0,0,0,0,0,0,0.0346,0.0346,0.0334,0.0353,0.0351,0.0303,0.0305,0.0258,0.0313,0.0351,0.0352,0.0325,0.0274,0.0273,0.0267,0.0193,0.025,0.0246,0.0243,0.0241,0.0153,0.0153,0,0,0,0,0,0,0.0337,0.0348,0.0335,0.033,0.0339,0.0301,0.0304,0.0329,0.0314,0.0309,0.0323,0.0327,0.0279,0.0272,0.0265,0.027,0.0245,0.0241,0.0238,0.0152,0.0153,0.0153,0,0,0,0,0,0,0.0339,0.0339,0.0338,0.0324,0.032,0.0299,0.0326,0.0326,0.0327,0.029,0.0289,0.0323,0.028,0.0271,0.0262,0.0265,0.0239,0.0235,0.0152,0.0152,0.0153,0.0229,0,0,0,0,0,0,0.034,0.0341,0.0361,0.0326,0.032,0.0299,0.0323,0.0323,0.0301,0.0307,0.0288,0.0284,0.0281,0.0269,0.0258,0.0259,0.0232,0.0152,0.0152,0.0153,0.0226,0.0232,0.0236,0,0,0,0,0,0.0342,0.0349,0.0364,0.0361,0.0349,0.0297,0.0291,0.0287,0.0299,0.0298,0.0313,0.0285,0.0264,0.0266,0.0253,0.0252,0.0152,0.0152,0.0153,0.0223,0.023,0.0236,0,0,0,0,0,0,0.0379,0.0353,0.0369,0.0377,0.0342,0.0302,0.0315,0.0279,0.0286,0.0307,0.0287,0.0284,0.0278,0.0247,0.025,0.0228,0.0201,0.0199,0.0259,0.0265,0.0271,0.0314,0.0228,0,0,0,0,0,0.0391,0.0374,0.0357,0.0349,0.0376,0.0345,0.0324,0.0298,0.0285,0.0292,0.0292,0.0285,0.0264,0.0254,0.0238,0.0214,0.0166,0.0204,0.0209,0.0214,0.0241,0.0177,0.018,0.0155,0.0155,0.0155,0,0,0.0393,0.0372,0.0366,0.035,0.0367,0.0359,0.0345,0.0316,0.0294,0.0278,0.0311,0.03,0.0262,0.0264,0.0255,0.0242,0.0188,0.0215,0.0219,0.0244,0.0178,0.0181,0.0183,0.0155,0.0155,0.0155,0,0,0.0363,0.0413,0.0401,0.0387,0.0364,0.0352,0.034,0.0326,0.0346,0.033,0.033,0.0341,0.0302,0.0306,0.0287,0.03,0.0219,0.027,0.0331,0.0269,0.0271,0.0272,0.0183,0.0175,0.0273,0.0273,0.0273,0,0.0362,0.0383,0.038,0.0372,0.0374,0.0356,0.0357,0.0351,0.0314,0.0348,0.0355,0.0353,0.0332,0.0322,0.0353,0.0315,0.025,0.0312,0.0277,0.0278,0.0278,0.0186,0.0177,0.0276,0.0276,0.0276,0.0275,0,0.0317,0.0363,0.0377,0.0379,0.0356,0.0363,0.0355,0.037,0.0393,0.039,0.0422,0.0415,0.0421,0.0401,0.0388,0.0373,0.0315,0.0291,0.0265,0.0285,0.0186,0.0175,0.0282,0.028,0.0279,0.0278,0,0,0.0296,0.034,0.0358,0.0383,0.0382,0.0347,0.0373,0.0402,0.0421,0.044,0.0469,0.0489,0.0511,0.0494,0.0465,0.0429,0.0374,0.0373,0.0367,0.0292,0.0202,0.0138,0.0119,0.0331,0.033,0.0329,0.0121,0,0.0307,0.0289,0.0315,0.0333,0.0366,0.0391,0.0402,0.0391,0.043,0.0458,0.0488,0.0504,0.0529,0.0528,0.0507,0.0406,0.0354,0.0431,0.0189,0.0182,0.013,0.0109,0.0187,0.0007,0.011,0.0109,0.0107,0,0.0289,0.0291,0.03,0.0352,0.0381,0.039,0.0435,0.0419,0.0463,0.0499,0.0549,0.055,0.0553,0.054,0.0425,0.0465,0.0359,0.0274,0.0262,0.018,0.01,0.0009,-0.0017,0.0088,0.009,0.0091,0.0093,0,0.0241,0.0303,0.0309,0.0318,0.0347,0.0412,0.0448,0.0475,0.0489,0.0536,0.0544,0.0557,0.0525,0.045,0.0336,0.0366,0.0146,0.0151,-0.0014,-0.0023,-0.0009,-0.0015,0.0045,0.0045,0.0045,0.0046,0.0047,0,0.0248,0.0277,0.0318,0.033,0.0344,0.0395,0.0457,0.047,0.0536,0.0544,0.0578,0.0572,0.0497,0.0381,0.03,0.0107,0.0117,-0.0004,-0.0073,0.0014,0.0013,0.0055,0.0059,0.0038,0.004,0.0041,0.0043,0,0.0212,0.0232,0.0231,0.0303,0.0319,0.0324,0.0451,0.0516,0.0555,0.0553,0.057,0.0545,0.0403,0.0272,0.008,0.0022,-0.0134,-0.0222,-0.0127,-0.0179,-0.0254,-0.0244,-0.0402,-0.0406,-0.0409,-0.0412,-0.0414,0,0.02,0.0193,0.0165,0.0153,0.0229,0.0294,0.0365,0.0484,0.0566,0.0549,0.0553,0.0416,0.0333,0.0029,-0.009,-0.0297,-0.0308,-0.0387,-0.0284,-0.0245,-0.0297,-0.0281,-0.0267,-0.026,-0.0261,-0.0262,-0.0262,0,0.019,0.0157,0.015,0.0088,0.016,0.0191,0.0345,0.0412,0.0531,0.0539,0.0512,0.0437,0.0186,0.0024,-0.0265,-0.0354,-0.0324,-0.041,-0.0416,-0.0151,-0.0126,-0.0172,-0.016,-0.0269,-0.0268,-0.0267,-0.0267,-0.0267,0.0183,0.0125,0.0072,0.0034,0.009,0.0137,0.0206,0.0388,0.0451,0.0489,0.0444,0.0362,0.0183,-0.0146,-0.0304,-0.0424,-0.0431,-0.0453,-0.0445,-0.0437,-0.0375,-0.0356,-0.0533,-0.0533,-0.0534,-0.0535,-0.0535,0,0.0121,0.0079,0.0034,-0.0019,0.0044,0.0086,0.0211,0.0285,0.0408,0.0459,0.0426,0.024,0.0071,-0.0108,-0.0265,-0.0411,-0.0337,-0.0467,-0.0325,-0.032,-0.0315,-0.0239,-0.0365,-0.0365,-0.0365,-0.0365,0,0,0.0058,-0.002,-0.007,-0.0062,-0.0004,0.0115,0.0201,0.0236,0.0305,0.0339,0.0374,0.0287,0.0117,0.0005,-0.0178,-0.0254,-0.0242,-0.0261,-0.0381,-0.0186,-0.0179,-0.0297,-0.0176,0,0,0,0,0]}],[{"header":{"parameterUnit":"m.s-1","parameterCategory":2,"la1":30.2991,"la2":30.254,"lo1":-89.0895,"lo2":-89.0444,"dy":0.0017,"dx":0.0017,"nx":28,"ny":28,"refTime":"2024-02-26T03:00:00:Z","depth":"4","parameterNumber":2,"parameterNumberName":"U-component_of_CURRENTS"},"data":[0,0,0,0,0,0,0,0,0,0,0,0,0,0,0,0,0,0,0,0,0,0,0,0,0,0,0,0,0,0,0,0,0,0,0,0,0,0,0,0,0,0,0,0,0,0,0,0,0,0,0,0,0,0,0,0,0,0,0.0395,0.0395,0,0.0435,0.0436,0.0436,0.0464,0.0464,0.0464,0.0464,0.0485,0.0485,0.0486,0,0,0,0,0,0,0,0,0,0,0,0,0,0.0366,0.0366,0.0395,0.0395,0.0396,0.0435,0.0436,0.0436,0.0464,0.0464,0.0464,0.0464,0.0485,0.0485,0.0486,0,0,0,0,0,0,0,0,0,0,0,0,0,0.039,0.0366,0.0395,0.0414,0.0416,0.0435,0.0436,0.0436,0.0464,0.0464,0.0464,0.0464,0.0485,0.0485,0.0486,0.0484,0,0,0.0488,0.0488,0,0,0,0,0,0,0,0,0.0388,0.0391,0.0411,0.0413,0.0415,0.0444,0.0433,0.0451,0.0463,0.0446,0.0464,0.0464,0.0469,0.0471,0.0479,0.0485,0.0486,0.0488,0.0488,0.0488,0.0489,0,0,0,0,0,0,0,0.0387,0.0389,0.0411,0.0411,0.0414,0.0429,0.0432,0.0437,0.0455,0.0447,0.0449,0.0453,0.047,0.0478,0.0479,0.0487,0.0488,0.0488,0.0489,0.0489,0.0546,0.0547,0,0,0,0,0,0,0.0379,0.0388,0.041,0.0412,0.0402,0.0429,0.0433,0.0435,0.0456,0.0459,0.0453,0.0454,0.0477,0.0479,0.048,0.0494,0.0488,0.0489,0.0489,0.0545,0.0546,0.0547,0,0,0,0,0,0,0.0379,0.0381,0.0408,0.0401,0.0405,0.0429,0.0431,0.0435,0.0451,0.046,0.0464,0.0464,0.0477,0.0479,0.0486,0.0494,0.0489,0.049,0.0543,0.0545,0.0547,0.0512,0,0,0,0,0,0,0.0378,0.038,0.0404,0.04,0.0405,0.0431,0.0431,0.0436,0.0452,0.0455,0.0471,0.0473,0.0478,0.0485,0.0486,0.0495,0.049,0.0542,0.0544,0.0546,0.0512,0.0512,0.0513,0,0,0,0,0,0.0376,0.0406,0.0405,0.0409,0.0429,0.0432,0.0437,0.0454,0.0452,0.0467,0.0467,0.0473,0.0501,0.0485,0.0487,0.0496,0.0541,0.0544,0.0546,0.0512,0.0512,0.0513,0,0,0,0,0,0,0.0405,0.0411,0.041,0.044,0.0439,0.0437,0.0464,0.0457,0.0469,0.0471,0.0472,0.0474,0.049,0.0502,0.0484,0.0525,0.0528,0.0531,0.0502,0.0503,0.0503,0.0464,0.0491,0,0,0,0,0,0.042,0.0446,0.0437,0.0462,0.0463,0.046,0.0471,0.0467,0.0467,0.0474,0.0467,0.048,0.0502,0.0507,0.0523,0.0531,0.0522,0.0547,0.0548,0.0548,0.0521,0.0526,0.0523,0.0556,0.0556,0.0556,0,0,0.0433,0.0445,0.0457,0.0471,0.0474,0.0471,0.0468,0.0477,0.0454,0.0473,0.0449,0.0477,0.0507,0.052,0.053,0.0528,0.0535,0.0551,0.0551,0.0523,0.0528,0.0524,0.0521,0.0558,0.0557,0.0557,0,0,0.0452,0.0483,0.0496,0.05,0.0505,0.0499,0.0497,0.0479,0.0459,0.0436,0.0459,0.0481,0.0487,0.0513,0.0529,0.0544,0.054,0.0569,0.0531,0.0537,0.0533,0.0529,0.0508,0.0502,0.0566,0.0566,0.0566,0,0.0468,0.0484,0.05,0.0506,0.0513,0.0505,0.05,0.0475,0.0452,0.0428,0.0424,0.0441,0.0478,0.0499,0.0516,0.0541,0.0533,0.052,0.0533,0.0529,0.0526,0.0505,0.05,0.0565,0.0565,0.0565,0.0565,0,0.0467,0.0499,0.0509,0.0513,0.0519,0.0524,0.0485,0.047,0.0439,0.04,0.0382,0.0409,0.0424,0.0455,0.0487,0.0502,0.05,0.0532,0.0519,0.052,0.0499,0.0494,0.0563,0.0563,0.0564,0.0564,0,0,0.0447,0.05,0.0503,0.0519,0.0526,0.0523,0.0492,0.0455,0.0437,0.0375,0.0342,0.0368,0.0368,0.0389,0.0436,0.0441,0.0434,0.0475,0.0476,0.0431,0.042,0.0466,0.0465,0.0467,0.0466,0.0465,0.0411,0,0.0439,0.0466,0.0487,0.0505,0.0515,0.0518,0.0498,0.046,0.0421,0.0385,0.0351,0.0349,0.0343,0.038,0.037,0.0442,0.042,0.0444,0.0445,0.0444,0.0467,0.0461,0.0463,0.0407,0.0406,0.0405,0.0404,0,0.0412,0.0445,0.0467,0.0517,0.0519,0.0527,0.0521,0.0492,0.0438,0.0407,0.0357,0.0338,0.0327,0.0341,0.0333,0.0349,0.0366,0.039,0.0389,0.0434,0.0481,0.0412,0.0395,0.0396,0.0396,0.0397,0.0398,0,0.0372,0.0426,0.0454,0.0468,0.0511,0.0521,0.0528,0.0497,0.0479,0.0422,0.0427,0.0351,0.0368,0.0331,0.0363,0.0351,0.0366,0.0364,0.0389,0.0392,0.0378,0.0382,0.0333,0.0333,0.0334,0.0334,0.0334,0,0.0352,0.038,0.045,0.0464,0.0497,0.0516,0.0531,0.052,0.0515,0.0494,0.0439,0.0428,0.0375,0.0372,0.0354,0.0361,0.0348,0.0362,0.0382,0.0367,0.0371,0.0373,0.0378,0.0332,0.0332,0.0333,0.0333,0,0.0312,0.036,0.0396,0.0457,0.0484,0.0495,0.0552,0.0552,0.0562,0.0548,0.0535,0.0498,0.0476,0.0437,0.0424,0.0394,0.0384,0.0395,0.037,0.0394,0.0386,0.039,0.0357,0.0358,0.0359,0.036,0.0361,0,0.0297,0.0315,0.0383,0.0407,0.0447,0.0488,0.0514,0.055,0.0544,0.0579,0.0558,0.0566,0.0526,0.051,0.0479,0.0419,0.0427,0.0407,0.0371,0.0365,0.0388,0.0391,0.0394,0.0363,0.0363,0.0363,0.0363,0,0.027,0.0297,0.0329,0.0374,0.0417,0.0458,0.0495,0.0509,0.0535,0.0574,0.0569,0.0557,0.0553,0.0496,0.05,0.0452,0.0403,0.0416,0.0412,0.0378,0.0372,0.0394,0.0396,0.0367,0.0366,0.0366,0.0366,0,0.025,0.0264,0.0303,0.0343,0.0387,0.041,0.044,0.0465,0.049,0.0534,0.0532,0.054,0.0545,0.0517,0.0502,0.0483,0.0441,0.0408,0.0403,0.0399,0.0443,0.0443,0.0462,0,0,0,0,0,0.0232,0.0252,0.0274,0.0316,0.0348,0.0377,0.0419,0.0444,0.0497,0.0485,0.0513,0.0498,0.0494,0.0491,0.0468,0.0492,0.043,0.0465,0.0387,0.0387,0.0383,0.0434,0,0,0,0,0,0,0.0227,0.0249,0.0265,0.0285,0.0304,0.0342,0.0366,0.0397,0.0389,0.0442,0.0428,0.0484,0.0463,0.0498,0.0463,0.0464,0.0409,0.0479,0.0478,0.0389,0.0385,0.0382,0.0433,0,0,0,0,0]},{"header":{"parameterUnit":"m.s-1","parameterCategory":2,"la1":30.2991,"la2":30.254,"lo1":-89.0895,"lo2":-89.0444,"dy":0.0017,"dx":0.0017,"nx":28,"ny":28,"refTime":"2024-02-26T03:00:00:Z","depth":"4","parameterNumber":3,"parameterNumberName":"V-component_of_CURRENTS"},"data":[0,0,0,0,0,0,0,0,0,0,0,0,0,0,0,0,0,0,0,0,0,0,0,0,0,0,0,0,0,0,0,0,0,0,0,0,0,0,0,0,0,0,0,0,0,0,0,0,0,0,0,0,0,0,0,0,0,0,-0.0242,-0.0243,0,-0.034,-0.034,-0.0341,-0.0412,-0.0413,-0.0414,-0.0415,-0.0425,-0.0424,-0.0424,0,0,0,0,0,0,0,0,0,0,0,0,0,-0.015,-0.0151,-0.0242,-0.0243,-0.0245,-0.034,-0.034,-0.0341,-0.0411,-0.0413,-0.0414,-0.0415,-0.0425,-0.0424,-0.0424,0,0,0,0,0,0,0,0,0,0,0,0,0,-0.0208,-0.0151,-0.0241,-0.0295,-0.0301,-0.0339,-0.034,-0.0342,-0.0411,-0.0413,-0.0414,-0.0416,-0.0426,-0.0425,-0.0424,-0.0386,0,0,-0.042,-0.042,0,0,0,0,0,0,0,0,-0.0205,-0.0211,-0.0286,-0.0292,-0.0299,-0.0369,-0.0312,-0.0354,-0.0411,-0.0364,-0.0415,-0.0417,-0.04,-0.0401,-0.0411,-0.0386,-0.0387,-0.042,-0.042,-0.0419,-0.0419,0,0,0,0,0,0,0,-0.02,-0.0207,-0.0276,-0.0287,-0.0295,-0.0327,-0.0336,-0.0321,-0.0367,-0.0368,-0.0375,-0.0393,-0.0403,-0.0412,-0.0411,-0.0387,-0.042,-0.0419,-0.0419,-0.0418,-0.0487,-0.049,0,0,0,0,0,0,-0.0195,-0.0203,-0.0273,-0.0279,-0.026,-0.0327,-0.0337,-0.0341,-0.0369,-0.0377,-0.0392,-0.0396,-0.0413,-0.0412,-0.0412,-0.0468,-0.0419,-0.0418,-0.0418,-0.0485,-0.0488,-0.049,0,0,0,0,0,0,-0.0192,-0.0199,-0.0269,-0.0248,-0.026,-0.0327,-0.0331,-0.0342,-0.041,-0.0389,-0.0395,-0.0455,-0.0414,-0.0413,-0.0456,-0.0465,-0.0418,-0.0417,-0.0482,-0.0486,-0.0489,-0.0517,0,0,0,0,0,0,-0.0189,-0.0197,-0.0211,-0.0247,-0.0261,-0.0334,-0.0331,-0.0343,-0.0417,-0.0425,-0.0443,-0.0443,-0.0415,-0.0458,-0.0455,-0.0463,-0.0416,-0.0479,-0.0484,-0.0488,-0.0513,-0.0521,-0.0528,0,0,0,0,0,-0.0185,-0.0197,-0.0211,-0.0221,-0.0273,-0.0337,-0.0348,-0.0397,-0.0419,-0.046,-0.0477,-0.0445,-0.0485,-0.0459,-0.0455,-0.0463,-0.0477,-0.0482,-0.0488,-0.0509,-0.0519,-0.0528,0,0,0,0,0,0,-0.0168,-0.0207,-0.0223,-0.0247,-0.0309,-0.0352,-0.0394,-0.0429,-0.0476,-0.0494,-0.0472,-0.0473,-0.0518,-0.05,-0.0472,-0.0504,-0.0477,-0.0482,-0.0495,-0.0504,-0.0511,-0.0518,-0.0415,0,0,0,0,0,-0.0168,-0.0194,-0.0241,-0.0273,-0.0302,-0.0358,-0.0396,-0.0439,-0.0479,-0.0506,-0.0519,-0.0529,-0.0527,-0.0528,-0.0537,-0.0543,-0.0534,-0.0552,-0.056,-0.0566,-0.0574,-0.0609,-0.062,-0.0509,-0.0509,-0.0508,0,0,-0.0172,-0.0201,-0.0216,-0.0274,-0.032,-0.0365,-0.0386,-0.0469,-0.0515,-0.0493,-0.0565,-0.0567,-0.0544,-0.0562,-0.0577,-0.0549,-0.0587,-0.0573,-0.0577,-0.0583,-0.0616,-0.0626,-0.0635,-0.0512,-0.0512,-0.0511,0,0,-0.0182,-0.0221,-0.0239,-0.0293,-0.0378,-0.0414,-0.0452,-0.0528,-0.0576,-0.0638,-0.0629,-0.0653,-0.0663,-0.064,-0.0624,-0.0684,-0.0641,-0.0687,-0.0704,-0.0738,-0.0746,-0.0754,-0.0718,-0.0722,-0.0671,-0.0671,-0.0671,0,-0.0196,-0.0211,-0.0263,-0.0301,-0.0347,-0.044,-0.048,-0.054,-0.0627,-0.0652,-0.0678,-0.0707,-0.0695,-0.068,-0.0697,-0.0696,-0.0691,-0.0658,-0.0744,-0.0752,-0.0759,-0.0721,-0.0726,-0.0673,-0.0673,-0.0673,-0.0672,0,-0.0203,-0.0239,-0.0268,-0.0333,-0.039,-0.0461,-0.0538,-0.0611,-0.068,-0.0721,-0.078,-0.078,-0.0779,-0.0782,-0.0749,-0.0779,-0.0749,-0.076,-0.071,-0.0771,-0.0728,-0.0732,-0.0676,-0.0675,-0.0675,-0.0674,0,0,-0.0193,-0.0254,-0.0275,-0.0292,-0.042,-0.0458,-0.055,-0.0629,-0.0659,-0.0771,-0.0787,-0.0824,-0.0835,-0.0821,-0.0793,-0.082,-0.0846,-0.0808,-0.0809,-0.0753,-0.0876,-0.075,-0.0741,-0.0877,-0.0879,-0.088,-0.0809,0,-0.0198,-0.0234,-0.0279,-0.0342,-0.0368,-0.0472,-0.0529,-0.0619,-0.0689,-0.0732,-0.0787,-0.0797,-0.0844,-0.0814,-0.0866,-0.0836,-0.0866,-0.0861,-0.0844,-0.0842,-0.0708,-0.0746,-0.0887,-0.0812,-0.0813,-0.0814,-0.0814,0,-0.0202,-0.0217,-0.0256,-0.0309,-0.0332,-0.0392,-0.0479,-0.0545,-0.0636,-0.0675,-0.0736,-0.0761,-0.079,-0.0832,-0.0881,-0.0876,-0.0894,-0.0901,-0.0898,-0.0778,-0.0726,-0.0752,-0.0821,-0.082,-0.082,-0.0819,-0.0819,0,-0.0157,-0.0213,-0.0232,-0.0264,-0.0337,-0.038,-0.0445,-0.054,-0.0563,-0.0635,-0.0622,-0.071,-0.0691,-0.0792,-0.0802,-0.0848,-0.0839,-0.0894,-0.0809,-0.0797,-0.0915,-0.0909,-0.0973,-0.0973,-0.0973,-0.0974,-0.0974,0,-0.016,-0.0174,-0.0212,-0.023,-0.0246,-0.0333,-0.0368,-0.0434,-0.0488,-0.0477,-0.0585,-0.0547,-0.0691,-0.0691,-0.0771,-0.0758,-0.0817,-0.0812,-0.0785,-0.0923,-0.0919,-0.0914,-0.0909,-0.0971,-0.0971,-0.0972,-0.0972,0,-0.0132,-0.0161,-0.0165,-0.0216,-0.023,-0.0258,-0.032,-0.0327,-0.0387,-0.0363,-0.0371,-0.041,-0.0411,-0.0505,-0.0581,-0.0647,-0.0684,-0.0671,-0.0735,-0.0712,-0.0635,-0.0632,-0.0603,-0.0598,-0.0594,-0.0591,-0.0588,0,-0.0129,-0.0128,-0.0139,-0.0136,-0.0173,-0.0207,-0.0224,-0.0288,-0.0275,-0.0257,-0.0216,-0.0201,-0.0232,-0.024,-0.0359,-0.0469,-0.0511,-0.0525,-0.069,-0.0627,-0.0605,-0.0608,-0.061,-0.0582,-0.0581,-0.058,-0.0579,0,-0.0112,-0.0116,-0.0114,-0.0099,-0.0113,-0.0098,-0.0123,-0.0092,-0.0128,-0.0127,-0.0074,-0.0105,-0.0069,-0.0166,-0.0208,-0.0314,-0.0526,-0.0486,-0.0499,-0.0654,-0.0601,-0.0583,-0.059,-0.0565,-0.0567,-0.0568,-0.0569,0,-0.01,-0.0091,-0.0088,-0.0079,-0.0068,-0.004,-0.0043,-0.0024,-0.0019,-0.0004,0.0046,0.0015,-0.0002,-0.0073,-0.0117,-0.0188,-0.0273,-0.0367,-0.0388,-0.0404,-0.0385,-0.0292,-0.0133,0,0,0,0,0,-0.0093,-0.0083,-0.0069,-0.0061,-0.0042,-0.0041,0.0005,0.0009,0.0031,0.0077,0.0041,0.0061,-0.0001,-0.0015,-0.0072,-0.0075,-0.0287,-0.0143,-0.0408,-0.0488,-0.0504,-0.0507,0,0,0,0,0,0,-0.0085,-0.0073,-0.0067,-0.0057,-0.005,-0.0028,-0.0004,0.0022,0.0041,0.0063,0.0035,0.0031,-0.0026,0.0016,-0.0083,-0.0095,-0.0274,-0.0167,-0.0169,-0.0479,-0.0494,-0.0506,-0.0515,0,0,0,0,0]}]]